BEIDOU-3 G1

Last updated on Oct. 23, 2020, 5:56 a.m. UTC

1 43683U 18085A   20296.92551253 -.00000294  00000-0  00000-0 0  9993
2 43683   1.4988 248.6745 0004351 351.4652 264.8097  1.00276255  7372
UTC
Height (km)
Latitude
Longitude
Inclination
Orbital Period
UTC large
Height (km)
Speed (km/s)
/
Latitude / Longitude
Inclination (degrees)
Orbital Period (minutes)
Azimuth
Elevation
Range (km)
Doppler Factor
iOS Compass Heading
iOS Angle

Next 30 passes for location: Hong Kong

Rise time Rise Azimuth (degrees) Set time Set Azimuth (degrees) Duration Max altitude (degrees)

No matching passes for this satellites